User: anonymous   Login
Location: Quebec
(46.8000°N, 71.2500°W)
Time: 22:38:15
(UTC-05:00)
Language:

CZ-4B R/B - Orbit

View from above orbital plane
View from above orbital plane
View from above satellite
View from above satellite

Ground track
Ground track

The orbit data is extracted from the following two-line orbital elements,

1 29093U 06015B   17020.89554789 +.00003497 +00000-0 +86871-4 0  9997
2 29093 097.4871 128.5062 0067258 126.2883 234.4600 15.38699649594774
Epoch (UTC): 20 January 2017 21:29:35
Eccentricity: 0.0067258
inclination: 97.4871°
perigee height: 404 km
apogee height: 496 km
right ascension of ascending node: 128.5062°
argument of perigee: 126.2883°
revolutions per day: 15.38699649
mean anomaly at epoch: 234.4600°
orbit number at epoch: 59477

The dashed part of the orbit path shows where the satellite is in the earth's shadow,  

DLR